Location: Hilton Head Island
(32.2163°N, 80.7526°W)
Time: 18:18:50
(UTC-04:00)

A-11 Canister half - Pass Details

Date: 16 February 2026
Orbit: 1525 x 1683 km, 47.3° (Epoch: 10 March)

Event Time Altitude Azimuth Distance (km) Brightness Sun altitude
Rises 18:40:46 0° 271° (W) 4,704 13.6 -7.2°
Reaches altitude 10° 18:44:13 10° 280° (W) 3,707 12.4 -7.9°
Maximum altitude 18:52:36 36° 345° (NNW) 2,239 9.9 -9.6°
Drops below altitude 10° 19:01:00 10° 50° (NE) 3,699 10.5 -11.4°
Enters shadow 19:01:50 - 52° (NE) 3,934 10.6 -11.6°
